[[{"header":{"parameterUnit":"m.s-1","parameterCategory":1,"la1":30.2991,"la2":30.254,"lo1":-89.0895,"lo2":-89.0444,"dy":0.0017,"dx":0.0017,"nx":28,"ny":28,"refTime":"2025-03-27T03:00:00:Z","depth":0,"parameterNumber":2,"parameterNumberName":"U-component_of_WINDS"},"data":[0,0,0,0,0,0,0,0,0,0,0,0,0,0,0,0,0,0,0,0,0,0,0,0,0,0,0,0,0,0,0,0,0,0,0,0,0,0,0,0,0,0,0,0,0,0,0,0,0,0,0,0,0,0,0,0,0,0,-3.0534,-3.0534,0,-3.0579,-3.0579,-3.058,-3.0508,-3.0506,-3.0503,-3.0501,-3.0547,-3.0551,-3.0554,0,0,0,0,0,0,0,0,0,0,0,0,0,-3.0388,-3.0391,-3.0534,-3.0534,-3.0535,-3.0579,-3.0579,-3.058,-3.0509,-3.0506,-3.0503,-3.05,-3.0546,-3.055,-3.0555,0,0,0,0,0,0,0,0,0,0,0,0,0,-3.0444,-3.0392,-3.0534,-3.0505,-3.0503,-3.0578,-3.0579,-3.058,-3.0509,-3.0506,-3.0502,-3.0499,-3.0545,-3.055,-3.0555,-3.0662,0,0,-3.0571,-3.0574,0,0,0,0,0,0,0,0,-3.0441,-3.0449,-3.0508,-3.0507,-3.0505,-3.0534,-3.0544,-3.0607,-3.051,-3.0507,-3.0501,-3.0497,-3.0546,-3.0551,-3.0567,-3.0664,-3.0666,-3.0572,-3.0575,-3.0577,-3.0579,0,0,0,0,0,0,0,-3.0437,-3.0447,-3.0551,-3.0509,-3.0507,-3.049,-3.0494,-3.0556,-3.0547,-3.0507,-3.0502,-3.0508,-3.0544,-3.0563,-3.0568,-3.0666,-3.0572,-3.0576,-3.058,-3.0582,-3.0853,-3.0857,0,0,0,0,0,0,-3.0436,-3.0444,-3.055,-3.0553,-3.0463,-3.0495,-3.05,-3.0528,-3.0546,-3.0545,-3.0511,-3.0505,-3.0555,-3.0562,-3.0569,-3.0695,-3.0577,-3.0582,-3.0585,-3.0849,-3.0854,-3.0858,0,0,0,0,0,0,-3.0433,-3.0446,-3.0548,-3.0497,-3.0509,-3.0502,-3.0535,-3.0531,-3.0549,-3.0549,-3.0547,-3.0532,-3.0553,-3.0562,-3.0639,-3.0695,-3.0585,-3.0589,-3.0844,-3.085,-3.0856,-3.0947,0,0,0,0,0,0,-3.043,-3.0446,-3.0486,-3.0499,-3.0512,-3.0617,-3.0538,-3.0535,-3.0559,-3.055,-3.0567,-3.0567,-3.0551,-3.0632,-3.0645,-3.0701,-3.0594,-3.0839,-3.0847,-3.0854,-3.0939,-3.0955,-3.0969,0,0,0,0,0,-3.0425,-3.0509,-3.0488,-3.0501,-3.0561,-3.062,-3.0628,-3.0607,-3.0563,-3.0604,-3.0604,-3.0566,-3.0688,-3.064,-3.0654,-3.0713,-3.0835,-3.0845,-3.0853,-3.0932,-3.0952,-3.0969,0,0,0,0,0,0,-3.0503,-3.051,-3.0487,-3.0578,-3.0599,-3.0608,-3.0658,-3.0629,-3.0663,-3.0654,-3.0628,-3.0632,-3.0715,-3.0722,-3.0669,-3.0817,-3.0754,-3.0766,-3.0809,-3.0828,-3.0843,-3.0839,-3.0598,0,0,0,0,0,-3.0531,-3.0578,-3.0582,-3.0663,-3.0674,-3.0665,-3.069,-3.0672,-3.0693,-3.0702,-3.0707,-3.0729,-3.0772,-3.0801,-3.084,-3.094,-3.0943,-3.0987,-3.1002,-3.1015,-3.1025,-3.1079,-3.1099,-3.0888,-3.0888,-3.0888,0,0,-3.0589,-3.0599,-3.063,-3.0679,-3.0693,-3.0742,-3.0673,-3.0728,-3.0765,-3.071,-3.0783,-3.0788,-3.0811,-3.09,-3.094,-3.0908,-3.1085,-3.1027,-3.1037,-3.104,-3.109,-3.111,-3.1128,-3.0894,-3.0893,-3.0892,0,0,-3.072,-3.0733,-3.0801,-3.0817,-3.0839,-3.0833,-3.085,-3.0863,-3.0865,-3.0938,-3.0898,-3.0942,-3.1016,-3.1034,-3.1053,-3.1193,-3.116,-3.1207,-3.1286,-3.1339,-3.1355,-3.137,-3.1419,-3.1438,-3.1218,-3.1218,-3.1218,0,-3.0789,-3.0862,-3.0839,-3.0898,-3.092,-3.0874,-3.0943,-3.096,-3.0995,-3.1011,-3.0976,-3.1069,-3.1081,-3.1174,-3.1208,-3.1226,-3.1244,-3.1204,-3.1355,-3.1369,-3.1383,-3.1429,-3.1448,-3.1224,-3.1223,-3.1222,-3.1222,0,-3.0946,-3.0997,-3.105,-3.1084,-3.1113,-3.1177,-3.1164,-3.1196,-3.1177,-3.1175,-3.125,-3.1264,-3.1305,-3.1326,-3.1308,-3.1417,-3.1397,-3.1359,-3.1295,-3.1408,-3.1452,-3.147,-3.1231,-3.1229,-3.1228,-3.1226,0,0,-3.1124,-3.1148,-3.1167,-3.1183,-3.1205,-3.1245,-3.1307,-3.1348,-3.1376,-3.1402,-3.1453,-3.1519,-3.1484,-3.1505,-3.1489,-3.1536,-3.1646,-3.1492,-3.1492,-3.1519,-3.1766,-3.1794,-3.1815,-3.1625,-3.1628,-3.1631,-3.1764,0,-3.1254,-3.1361,-3.1343,-3.1447,-3.1494,-3.1452,-3.1506,-3.1526,-3.1526,-3.1567,-3.1567,-3.1613,-3.1564,-3.1577,-3.1621,-3.1623,-3.1695,-3.1613,-3.1672,-3.1674,-3.1666,-3.1838,-3.1866,-3.1991,-3.1781,-3.1784,-3.1786,0,-3.1419,-3.1451,-3.1559,-3.1576,-3.1595,-3.1644,-3.168,-3.172,-3.1742,-3.1739,-3.1764,-3.174,-3.1803,-3.174,-3.1826,-3.1771,-3.1794,-3.1799,-3.1803,-3.1807,-3.1736,-3.1844,-3.2031,-3.2049,-3.1813,-3.1811,-3.1809,0,-3.1537,-3.1609,-3.1682,-3.1697,-3.1718,-3.1753,-3.1764,-3.1783,-3.1809,-3.1841,-3.1858,-3.1898,-3.1919,-3.1951,-3.1938,-3.1894,-3.2027,-3.1963,-3.2026,-3.2026,-3.2054,-3.2052,-3.2245,-3.2072,-3.2072,-3.2071,-3.2071,0,-3.1683,-3.175,-3.1736,-3.1781,-3.1856,-3.1836,-3.1911,-3.1917,-3.1934,-3.198,-3.1947,-3.1991,-3.1973,-3.2016,-3.2007,-3.2079,-3.209,-3.2089,-3.2085,-3.2091,-3.2091,-3.2104,-3.2095,-3.2076,-3.2075,-3.2074,-3.2073,0,-3.1827,-3.182,-3.1898,-3.1912,-3.1917,-3.1971,-3.1983,-3.2026,-3.2025,-3.2083,-3.2096,-3.2094,-3.2143,-3.2134,-3.2188,-3.2182,-3.2273,-3.2259,-3.2265,-3.2261,-3.2324,-3.2318,-3.2532,-3.2559,-3.237,-3.2371,-3.2373,0,-3.1919,-3.197,-3.199,-3.2019,-3.2032,-3.2078,-3.2105,-3.2088,-3.2117,-3.2148,-3.2187,-3.2234,-3.2269,-3.235,-3.2353,-3.2395,-3.2382,-3.2454,-3.2388,-3.2392,-3.2382,-3.2378,-3.2383,-3.2466,-3.2469,-3.247,-3.2472,0,-3.2083,-3.2078,-3.2117,-3.2157,-3.219,-3.222,-3.2247,-3.2272,-3.2258,-3.2293,-3.2343,-3.2371,-3.2427,-3.2473,-3.2513,-3.2524,-3.2496,-3.2493,-3.251,-3.2515,-3.2516,-3.2515,-3.2299,-3.2488,-3.2486,-3.2485,-3.2484,-3.2483,-3.2203,-3.2247,-3.2268,-3.2314,-3.2333,-3.2359,-3.24,-3.2404,-3.2445,-3.2489,-3.2478,-3.2534,-3.2557,-3.2607,-3.2623,-3.2667,-3.264,-3.2665,-3.2671,-3.2676,-3.2684,-3.251,-3.2675,-3.2674,-3.2674,-3.2673,-3.2673,0,-3.2365,-3.2377,-3.2419,-3.2458,-3.2495,-3.2466,-3.2495,-3.2527,-3.2577,-3.2601,-3.2637,-3.2695,-3.2741,-3.2749,-3.2792,-3.2826,-3.2815,-3.2838,-3.2834,-3.2837,-3.2706,-3.2686,-3.2847,-3.2847,-3.2847,-3.2847,-3.2847,-3.2847,-3.2453,-3.2525,-3.2523,-3.2605,-3.2616,-3.2671,-3.269,-3.2715,-3.2733,-3.28,-3.2837,-3.2842,-3.286,-3.2904,-3.2945,-3.2946,-3.2963,-3.2992,-3.2988,-3.2864,-3.2847,-3.283,-3.2812,-3.2996,-3.2996,-3.3116,-3.3117,-3.3118]},{"header":{"parameterUnit":"m.s-1","parameterCategory":1,"la1":30.2991,"la2":30.254,"lo1":-89.0895,"lo2":-89.0444,"dy":0.0017,"dx":0.0017,"nx":28,"ny":28,"refTime":"2025-03-27T03:00:00:Z","depth":0,"parameterNumber":3,"parameterNumberName":"V-component_of_WINDS"},"data":[0,0,0,0,0,0,0,0,0,0,0,0,0,0,0,0,0,0,0,0,0,0,0,0,0,0,0,0,0,0,0,0,0,0,0,0,0,0,0,0,0,0,0,0,0,0,0,0,0,0,0,0,0,0,0,0,0,0,-0.281,-0.281,0,-0.2762,-0.2761,-0.2761,-0.2717,-0.2716,-0.2716,-0.2715,-0.2668,-0.2667,-0.2666,0,0,0,0,0,0,0,0,0,0,0,0,0,-0.2866,-0.2865,-0.2811,-0.281,-0.2809,-0.2762,-0.2761,-0.2761,-0.2717,-0.2716,-0.2716,-0.2715,-0.2668,-0.2667,-0.2666,0,0,0,0,0,0,0,0,0,0,0,0,0,-0.2832,-0.2865,-0.2811,-0.2782,-0.2779,-0.2762,-0.2761,-0.2761,-0.2717,-0.2716,-0.2716,-0.2715,-0.2668,-0.2667,-0.2666,-0.2675,0,0,-0.2663,-0.2662,0,0,0,0,0,0,0,0,-0.2834,-0.283,-0.2787,-0.2784,-0.278,-0.2745,-0.2763,-0.2732,-0.2717,-0.2741,-0.2715,-0.2714,-0.2694,-0.2691,-0.2684,-0.2673,-0.2671,-0.2663,-0.2662,-0.2661,-0.2661,0,0,0,0,0,0,0,-0.2836,-0.2832,-0.2791,-0.2786,-0.2782,-0.2771,-0.2766,-0.2757,-0.2723,-0.2738,-0.2735,-0.273,-0.2692,-0.2685,-0.2682,-0.267,-0.2663,-0.2662,-0.2661,-0.266,-0.2662,-0.2663,0,0,0,0,0,0,-0.2843,-0.2834,-0.2793,-0.279,-0.2806,-0.2771,-0.2765,-0.2757,-0.2722,-0.2716,-0.2731,-0.2728,-0.2687,-0.2684,-0.268,-0.2687,-0.2661,-0.266,-0.266,-0.2662,-0.2662,-0.2663,0,0,0,0,0,0,-0.2844,-0.284,-0.2795,-0.2811,-0.2805,-0.2771,-0.2763,-0.2756,-0.2749,-0.2716,-0.271,-0.2729,-0.2686,-0.2682,-0.2676,-0.2685,-0.266,-0.2659,-0.2661,-0.2662,-0.2663,-0.2702,0,0,0,0,0,0,-0.2846,-0.2841,-0.2844,-0.2811,-0.2804,-0.2791,-0.2763,-0.2756,-0.2747,-0.2743,-0.2714,-0.2708,-0.2685,-0.2678,-0.2675,-0.2683,-0.2658,-0.266,-0.2661,-0.2662,-0.27,-0.2704,-0.2708,0,0,0,0,0,-0.2848,-0.2858,-0.2844,-0.2839,-0.2807,-0.2792,-0.2788,-0.2761,-0.2748,-0.275,-0.2729,-0.2709,-0.2684,-0.2678,-0.2674,-0.2682,-0.2659,-0.2661,-0.2662,-0.2698,-0.2703,-0.2708,0,0,0,0,0,0,-0.2893,-0.2853,-0.2837,-0.2836,-0.2818,-0.2785,-0.2787,-0.2768,-0.2753,-0.275,-0.2718,-0.2712,-0.271,-0.2695,-0.2688,-0.2688,-0.2669,-0.267,-0.2697,-0.2702,-0.2706,-0.271,-0.2657,0,0,0,0,0,-0.2902,-0.2893,-0.2859,-0.2861,-0.2853,-0.2822,-0.2814,-0.2795,-0.2775,-0.2767,-0.2745,-0.2727,-0.2715,-0.2708,-0.2695,-0.2697,-0.269,-0.2701,-0.2705,-0.2708,-0.271,-0.2708,-0.2712,-0.2669,-0.2669,-0.2669,0,0,-0.2922,-0.2899,-0.2896,-0.287,-0.2853,-0.2844,-0.2815,-0.2808,-0.2801,-0.2766,-0.2758,-0.2742,-0.2719,-0.2717,-0.2715,-0.2705,-0.272,-0.2711,-0.2714,-0.2713,-0.271,-0.2715,-0.2718,-0.267,-0.267,-0.2669,0,0,-0.2954,-0.2936,-0.2935,-0.2918,-0.2893,-0.2872,-0.2872,-0.2841,-0.2828,-0.282,-0.2793,-0.2785,-0.2765,-0.2749,-0.2739,-0.2762,-0.2743,-0.2759,-0.2781,-0.278,-0.2784,-0.2786,-0.2794,-0.2797,-0.276,-0.276,-0.276,0,-0.2982,-0.2967,-0.2937,-0.2931,-0.2919,-0.2886,-0.2884,-0.287,-0.2842,-0.2835,-0.2824,-0.2797,-0.278,-0.2773,-0.2778,-0.2771,-0.2769,-0.2762,-0.2785,-0.2788,-0.279,-0.2797,-0.28,-0.2762,-0.2762,-0.2762,-0.2762,0,-0.3003,-0.2993,-0.2995,-0.2967,-0.2957,-0.2953,-0.2922,-0.2915,-0.2896,-0.2876,-0.2867,-0.2845,-0.2826,-0.2823,-0.2806,-0.2813,-0.2807,-0.2791,-0.2772,-0.2797,-0.2803,-0.2805,-0.2765,-0.2765,-0.2764,-0.2764,0,0,-0.3062,-0.3016,-0.3018,-0.3004,-0.2973,-0.2964,-0.2959,-0.2939,-0.2933,-0.2915,-0.2908,-0.2891,-0.2876,-0.2864,-0.2844,-0.2843,-0.2862,-0.2827,-0.2826,-0.2833,-0.2867,-0.2879,-0.2883,-0.2848,-0.2849,-0.2849,-0.2869,0,-0.3088,-0.3075,-0.3047,-0.3043,-0.3032,-0.2999,-0.2994,-0.2974,-0.2955,-0.2944,-0.2923,-0.2911,-0.2892,-0.2884,-0.2882,-0.286,-0.2868,-0.2858,-0.2842,-0.2842,-0.2849,-0.2886,-0.2899,-0.2919,-0.2871,-0.2872,-0.2872,0,-0.3117,-0.3099,-0.3093,-0.3061,-0.3055,-0.3051,-0.303,-0.302,-0.2996,-0.2982,-0.2968,-0.2945,-0.2937,-0.2919,-0.2907,-0.29,-0.2892,-0.288,-0.288,-0.2878,-0.2859,-0.2884,-0.2925,-0.2928,-0.2875,-0.2875,-0.2875,0,-0.316,-0.3134,-0.3127,-0.3116,-0.3078,-0.3076,-0.306,-0.3035,-0.3025,-0.3007,-0.2999,-0.2981,-0.2971,-0.2957,-0.293,-0.292,-0.2921,-0.2901,-0.2909,-0.2909,-0.291,-0.2911,-0.295,-0.2906,-0.2906,-0.2906,-0.2906,0,-0.3192,-0.3189,-0.3145,-0.3141,-0.3137,-0.3104,-0.3102,-0.3083,-0.3061,-0.3052,-0.3023,-0.3015,-0.298,-0.2968,-0.2947,-0.294,-0.2936,-0.2924,-0.2918,-0.2926,-0.2928,-0.292,-0.2918,-0.2907,-0.2906,-0.2906,-0.2906,0,-0.3239,-0.321,-0.3199,-0.3163,-0.3154,-0.3153,-0.3122,-0.3117,-0.3095,-0.3084,-0.308,-0.3046,-0.3031,-0.3002,-0.2979,-0.2965,-0.2962,-0.2952,-0.2969,-0.2966,-0.2975,-0.2974,-0.3011,-0.3014,-0.2968,-0.2969,-0.2969,0,-0.3261,-0.3258,-0.3221,-0.3213,-0.3198,-0.3185,-0.3173,-0.3141,-0.313,-0.3102,-0.3099,-0.3081,-0.3065,-0.3042,-0.3016,-0.2998,-0.2987,-0.3001,-0.2984,-0.2992,-0.2986,-0.2987,-0.2986,-0.3005,-0.3006,-0.3006,-0.3007,0,-0.3303,-0.3288,-0.3272,-0.3251,-0.3238,-0.322,-0.3201,-0.3195,-0.3158,-0.3148,-0.3131,-0.3118,-0.3093,-0.3076,-0.3053,-0.3037,-0.3016,-0.3012,-0.3013,-0.3021,-0.3031,-0.3025,-0.2979,-0.3012,-0.3011,-0.3011,-0.301,-0.301,-0.3338,-0.3333,-0.3306,-0.3289,-0.327,-0.3252,-0.3245,-0.3221,-0.3207,-0.3183,-0.3165,-0.3149,-0.3124,-0.3092,-0.3077,-0.3064,-0.3054,-0.3055,-0.3056,-0.3056,-0.3059,-0.3033,-0.306,-0.306,-0.3059,-0.3059,-0.3059,0,-0.3377,-0.3358,-0.3343,-0.3315,-0.3302,-0.3281,-0.3258,-0.3248,-0.3235,-0.3213,-0.3197,-0.3177,-0.3159,-0.3131,-0.311,-0.3106,-0.3095,-0.3101,-0.3101,-0.3098,-0.307,-0.3071,-0.311,-0.311,-0.311,-0.311,-0.311,-0.311,-0.3397,-0.3387,-0.3369,-0.3349,-0.3329,-0.3313,-0.3301,-0.3284,-0.3266,-0.3245,-0.323,-0.3211,-0.3186,-0.3163,-0.3146,-0.3138,-0.3132,-0.3141,-0.313,-0.3105,-0.31,-0.3095,-0.3096,-0.314,-0.314,-0.3159,-0.3159,-0.3159]}]]